Time,TemperatureF,DewpointF,PressureIn,WindDirection,WindDirectionDegrees,WindSpeedMPH,WindSpeedGustMPH,Humidity,HourlyPrecipIn,Conditions,Clouds,dailyrainin,SoftwareType,DateUTC
2013-02-21 00:01:00,67.1,60.5,30.04,ESE,113,0.0,0.0,79,0.00,,,0.00,WUHU216HW,2013-02-21 05:01:00,
2013-02-21 00:06:00,67.1,60.5,30.04,ESE,113,0.0,0.0,79,0.00,,,0.00,WUHU216HW,2013-02-21 05:06:00,
2013-02-21 00:29:00,66.6,60.3,30.02,ESE,113,0.0,0.0,80,0.00,,,0.00,WUHU216HW,2013-02-21 05:29:00,
2013-02-21 00:31:00,66.6,60.3,30.02,ESE,113,0.0,0.0,80,0.00,,,0.00,WUHU216HW,2013-02-21 05:31:00,
2013-02-21 00:36:00,66.6,60.3,30.02,ESE,113,0.0,0.0,80,0.00,,,0.00,WUHU216HW,2013-02-21 05:36:00,
2013-02-21 00:59:00,66.1,59.8,30.02,ESE,113,0.0,0.0,80,0.00,,,0.00,WUHU216HW,2013-02-21 05:59:00,
2013-02-21 01:01:00,66.1,59.8,30.02,ESE,113,0.0,0.0,80,0.00,,,0.00,WUHU216HW,2013-02-21 06:01:00,
2013-02-21 01:06:00,66.1,59.8,30.02,ESE,113,0.0,0.0,80,0.00,,,0.00,WUHU216HW,2013-02-21 06:06:00,
2013-02-21 01:30:00,65.7,59.4,30.01,ESE,113,0.0,0.0,80,0.00,,,0.00,WUHU216HW,2013-02-21 06:30:00,
2013-02-21 01:31:00,65.7,59.4,30.01,ESE,113,0.0,0.0,80,0.00,,,0.00,WUHU216HW,2013-02-21 06:31:00,
2013-02-21 01:36:00,65.7,59.4,30.01,ESE,113,0.0,0.0,80,0.00,,,0.00,WUHU216HW,2013-02-21 06:36:00,
2013-02-21 02:00:00,65.3,59.4,30.00,ESE,113,0.2,0.2,81,0.00,,,0.00,WUHU216HW,2013-02-21 07:00:00,
2013-02-21 02:01:00,65.3,59.4,30.00,ESE,113,0.2,0.2,81,0.00,,,0.00,WUHU216HW,2013-02-21 07:01:00,
2013-02-21 02:06:00,65.3,59.4,30.00,ESE,113,0.2,0.2,81,0.00,,,0.00,WUHU216HW,2013-02-21 07:06:00,
2013-02-21 02:30:00,65.2,59.2,29.98,SE,135,0.4,0.4,81,0.00,,,0.00,WUHU216HW,2013-02-21 07:30:00,
2013-02-21 02:32:00,65.2,59.2,29.98,SE,135,0.4,0.4,81,0.00,,,0.00,WUHU216HW,2013-02-21 07:32:00,
2013-02-21 02:37:00,65.2,59.2,29.98,SE,135,0.4,0.4,81,0.00,,,0.00,WUHU216HW,2013-02-21 07:37:00,
2013-02-21 03:00:00,65.3,59.7,29.97,SE,135,0.0,0.0,82,0.00,,,0.00,WUHU216HW,2013-02-21 08:00:00,
2013-02-21 03:01:00,65.3,59.7,29.97,SE,135,0.0,0.0,82,0.00,,,0.00,WUHU216HW,2013-02-21 08:01:00,
2013-02-21 03:06:00,65.3,59.7,29.97,SE,135,0.0,0.0,82,0.00,,,0.00,WUHU216HW,2013-02-21 08:06:00,
2013-02-21 03:30:00,65.3,60.0,29.96,East,90,0.2,0.2,83,0.00,,,0.00,WUHU216HW,2013-02-21 08:30:00,
2013-02-21 03:31:00,65.3,60.0,29.96,East,90,0.2,0.2,83,0.00,,,0.00,WUHU216HW,2013-02-21 08:31:00,
2013-02-21 03:36:00,65.3,60.0,29.96,East,90,0.2,0.2,83,0.00,,,0.00,WUHU216HW,2013-02-21 08:36:00,
2013-02-21 04:00:00,65.7,60.8,29.97,ESE,113,0.0,0.0,84,0.00,,,0.00,WUHU216HW,2013-02-21 09:00:00,
2013-02-21 04:01:00,65.7,60.8,29.97,ESE,113,0.0,0.0,84,0.00,,,0.00,WUHU216HW,2013-02-21 09:01:00,
2013-02-21 04:06:00,65.7,60.8,29.97,ESE,113,0.0,0.0,84,0.00,,,0.00,WUHU216HW,2013-02-21 09:06:00,
2013-02-21 04:31:00,65.5,60.6,29.97,ENE,68,0.4,0.4,84,0.00,,,0.00,WUHU216HW,2013-02-21 09:31:00,
2013-02-21 04:36:00,65.5,60.6,29.97,ENE,68,0.4,0.4,84,0.00,,,0.00,WUHU216HW,2013-02-21 09:36:00,
2013-02-21 05:00:00,65.5,60.6,29.98,ENE,68,0.2,0.2,84,0.00,,,0.00,WUHU216HW,2013-02-21 10:00:00,
2013-02-21 05:05:00,65.5,60.6,29.98,ENE,68,0.2,0.2,84,0.00,,,0.00,WUHU216HW,2013-02-21 10:05:00,
2013-02-21 05:30:00,65.3,60.8,29.99,ENE,68,0.0,0.0,85,0.00,,,0.00,WUHU216HW,2013-02-21 10:30:00,
2013-02-21 05:35:00,65.3,60.8,29.99,ENE,68,0.0,0.0,85,0.00,,,0.00,WUHU216HW,2013-02-21 10:35:00,
2013-02-21 06:00:00,65.2,60.8,29.99,NNE,23,1.1,1.1,86,0.00,,,0.00,WUHU216HW,2013-02-21 11:00:00,
2013-02-21 06:05:00,65.2,60.8,29.99,NNE,23,1.1,1.1,86,0.00,,,0.00,WUHU216HW,2013-02-21 11:05:00,
2013-02-21 06:30:00,65.0,60.4,30.00,East,90,0.2,0.2,85,0.00,,,0.00,WUHU216HW,2013-02-21 11:30:00,
2013-02-21 06:35:00,65.0,60.4,30.00,East,90,0.2,0.2,85,0.00,,,0.00,WUHU216HW,2013-02-21 11:35:00,
2013-02-21 07:00:00,64.8,60.2,30.01,ESE,113,1.3,1.3,85,0.00,,,0.00,WUHU216HW,2013-02-21 12:00:00,
2013-02-21 07:05:00,64.8,60.2,30.01,ESE,113,1.3,1.3,85,0.00,,,0.00,WUHU216HW,2013-02-21 12:05:00,
2013-02-21 07:30:00,64.4,60.2,30.02,North,0,1.1,1.1,86,0.00,,,0.00,WUHU216HW,2013-02-21 12:30:00,
2013-02-21 07:35:00,64.4,60.2,30.02,North,0,1.1,1.1,86,0.00,,,0.00,WUHU216HW,2013-02-21 12:35:00,
2013-02-21 08:00:00,64.6,60.4,30.03,NNE,23,1.3,1.3,86,0.00,,,0.00,WUHU216HW,2013-02-21 13:00:00,
2013-02-21 08:05:00,64.6,60.4,30.03,NNE,23,1.3,1.3,86,0.00,,,0.00,WUHU216HW,2013-02-21 13:05:00,
2013-02-21 08:30:00,65.2,61.2,30.04,ENE,68,2.2,2.2,87,0.00,,,0.00,WUHU216HW,2013-02-21 13:30:00,
2013-02-21 08:35:00,65.2,61.2,30.04,ENE,68,2.2,2.2,87,0.00,,,0.00,WUHU216HW,2013-02-21 13:35:00,
2013-02-21 09:00:00,66.8,63.1,30.04,SE,135,2.7,2.7,88,0.00,,,0.00,WUHU216HW,2013-02-21 14:00:00,
2013-02-21 09:05:00,66.8,63.1,30.04,SE,135,2.7,2.7,88,0.00,,,0.00,WUHU216HW,2013-02-21 14:05:00,
2013-02-21 09:30:00,69.8,65.1,30.04,ESE,113,1.1,1.1,85,0.00,,,0.00,WUHU216HW,2013-02-21 14:30:00,
2013-02-21 09:35:00,69.8,65.1,30.04,ESE,113,1.1,1.1,85,0.00,,,0.00,WUHU216HW,2013-02-21 14:35:00,
2013-02-21 10:00:00,72.7,66.6,30.04,ESE,113,5.1,5.1,81,0.00,,,0.00,WUHU216HW,2013-02-21 15:00:00,
2013-02-21 10:05:00,72.7,66.6,30.04,ESE,113,5.1,5.1,81,0.00,,,0.00,WUHU216HW,2013-02-21 15:05:00,
2013-02-21 10:30:00,75.1,67.8,30.04,SSE,158,1.8,1.8,78,0.00,,,0.00,WUHU216HW,2013-02-21 15:30:00,
2013-02-21 10:35:00,75.1,67.8,30.04,SSE,158,1.8,1.8,78,0.00,,,0.00,WUHU216HW,2013-02-21 15:35:00,
2013-02-21 11:00:00,77.2,67.5,30.05,SE,135,2.5,2.5,72,0.00,,,0.00,WUHU216HW,2013-02-21 16:00:00,
2013-02-21 11:05:00,77.2,67.5,30.05,SE,135,2.5,2.5,72,0.00,,,0.00,WUHU216HW,2013-02-21 16:05:00,
2013-02-21 11:29:00,79.2,68.1,30.05,SSW,203,2.0,2.0,69,0.00,,,0.00,WUHU216HW,2013-02-21 16:29:00,
2013-02-21 11:35:00,79.2,68.1,30.05,SSW,203,2.0,2.0,69,0.00,,,0.00,WUHU216HW,2013-02-21 16:35:00,
2013-02-21 11:59:00,80.3,67.0,30.04,ESE,113,4.9,4.9,64,0.00,,,0.00,WUHU216HW,2013-02-21 16:59:00,
2013-02-21 12:05:00,80.3,67.0,30.04,ESE,113,4.9,4.9,64,0.00,,,0.00,WUHU216HW,2013-02-21 17:05:00,
2013-02-21 12:29:00,81.2,68.2,30.03,ESE,113,1.8,1.8,65,0.00,,,0.00,WUHU216HW,2013-02-21 17:29:00,
2013-02-21 12:35:00,81.2,68.2,30.03,ESE,113,1.8,1.8,65,0.00,,,0.00,WUHU216HW,2013-02-21 17:35:00,
2013-02-21 12:59:00,81.4,67.5,30.02,SSE,158,1.1,1.1,63,0.00,,,0.00,WUHU216HW,2013-02-21 17:59:00,
2013-02-21 13:04:00,81.4,67.5,30.02,SSE,158,1.1,1.1,63,0.00,,,0.00,WUHU216HW,2013-02-21 18:04:00,
2013-02-21 13:29:00,83.0,67.7,30.00,SSE,158,2.0,2.0,60,0.00,,,0.00,WUHU216HW,2013-02-21 18:29:00,
2013-02-21 13:34:00,83.0,67.7,30.00,SSE,158,2.0,2.0,60,0.00,,,0.00,WUHU216HW,2013-02-21 18:34:00,
2013-02-21 13:59:00,82.8,68.4,29.99,South,180,1.8,1.8,62,0.00,,,0.00,WUHU216HW,2013-02-21 18:59:00,
2013-02-21 14:04:00,82.8,68.4,29.99,South,180,1.8,1.8,62,0.00,,,0.00,WUHU216HW,2013-02-21 19:04:00,
2013-02-21 14:29:00,83.9,70.8,29.98,SSW,203,0.7,0.7,65,0.00,,,0.00,WUHU216HW,2013-02-21 19:29:00,
2013-02-21 14:34:00,83.9,70.8,29.98,SSW,203,0.7,0.7,65,0.00,,,0.00,WUHU216HW,2013-02-21 19:34:00,
2013-02-21 14:59:00,83.2,68.3,29.98,South,180,5.4,5.4,61,0.00,,,0.00,WUHU216HW,2013-02-21 19:59:00,
2013-02-21 15:05:00,83.2,68.3,29.98,South,180,5.4,5.4,61,0.00,,,0.00,WUHU216HW,2013-02-21 20:05:00,
2013-02-21 15:29:00,83.2,66.8,29.98,South,180,4.0,4.0,58,0.00,,,0.00,WUHU216HW,2013-02-21 20:29:00,
2013-02-21 15:34:00,83.2,66.8,29.98,South,180,4.0,4.0,58,0.00,,,0.00,WUHU216HW,2013-02-21 20:34:00,
2013-02-21 15:59:00,82.1,67.7,29.97,SSW,203,0.9,0.9,62,0.00,,,0.00,WUHU216HW,2013-02-21 20:59:00,
2013-02-21 16:04:00,82.1,67.7,29.97,SSW,203,0.9,0.9,62,0.00,,,0.00,WUHU216HW,2013-02-21 21:04:00,
2013-02-21 16:29:00,82.6,68.2,29.98,WSW,248,1.8,1.8,62,0.00,,,0.00,WUHU216HW,2013-02-21 21:29:00,
2013-02-21 16:34:00,82.6,68.2,29.98,WSW,248,1.8,1.8,62,0.00,,,0.00,WUHU216HW,2013-02-21 21:34:00,
2013-02-21 16:59:00,81.5,67.7,29.98,SSW,203,1.6,1.6,63,0.00,,,0.00,WUHU216HW,2013-02-21 21:59:00,
2013-02-21 17:04:00,81.5,67.7,29.98,SSW,203,1.6,1.6,63,0.00,,,0.00,WUHU216HW,2013-02-21 22:04:00,
2013-02-21 17:29:00,80.6,67.3,29.98,SSW,203,1.1,1.1,64,0.00,,,0.00,WUHU216HW,2013-02-21 22:29:00,
2013-02-21 17:34:00,80.6,67.3,29.98,SSW,203,1.1,1.1,64,0.00,,,0.00,WUHU216HW,2013-02-21 22:34:00,
2013-02-21 17:59:00,78.8,66.5,29.98,SSE,158,1.6,1.6,66,0.00,,,0.00,WUHU216HW,2013-02-21 22:59:00,
2013-02-21 18:04:00,78.8,66.5,29.98,SSE,158,1.6,1.6,66,0.00,,,0.00,WUHU216HW,2013-02-21 23:04:00,
2013-02-21 18:29:00,77.4,65.6,29.98,SSE,158,0.4,0.4,67,0.00,,,0.00,WUHU216HW,2013-02-21 23:29:00,
2013-02-21 18:34:00,77.4,65.6,29.98,SSE,158,0.4,0.4,67,0.00,,,0.00,WUHU216HW,2013-02-21 23:34:00,
2013-02-21 18:59:00,75.4,64.1,29.98,South,180,2.0,2.0,68,0.00,,,0.00,WUHU216HW,2013-02-21 23:59:00,
2013-02-21 19:04:00,75.4,64.1,29.98,South,180,2.0,2.0,68,0.00,,,0.00,WUHU216HW,2013-02-22 00:04:00,
2013-02-21 19:29:00,74.3,64.0,29.99,SSE,158,0.4,0.4,70,0.00,,,0.00,WUHU216HW,2013-02-22 00:29:00,
2013-02-21 19:34:00,74.3,64.0,29.99,SSE,158,0.4,0.4,70,0.00,,,0.00,WUHU216HW,2013-02-22 00:34:00,
2013-02-21 19:59:00,74.2,64.2,30.00,SSE,158,0.0,0.0,71,0.00,,,0.00,WUHU216HW,2013-02-22 00:59:00,
2013-02-21 20:04:00,74.2,64.2,30.00,SSE,158,0.0,0.0,71,0.00,,,0.00,WUHU216HW,2013-02-22 01:04:00,
2013-02-21 20:29:00,73.1,64.0,30.01,SE,135,0.7,0.7,73,0.00,,,0.00,WUHU216HW,2013-02-22 01:29:00,
2013-02-21 20:34:00,73.1,64.0,30.01,SE,135,0.7,0.7,73,0.00,,,0.00,WUHU216HW,2013-02-22 01:34:00,
2013-02-21 20:59:00,72.7,64.4,30.02,SE,135,0.0,0.0,75,0.00,,,0.00,WUHU216HW,2013-02-22 01:59:00,
2013-02-21 21:04:00,72.7,64.4,30.02,SE,135,0.0,0.0,75,0.00,,,0.00,WUHU216HW,2013-02-22 02:04:00,
2013-02-21 21:32:00,72.0,63.6,30.02,ESE,113,0.0,0.0,75,0.00,,,0.00,WUHU216HW,2013-02-22 02:32:00,
2013-02-21 21:37:00,72.0,63.6,30.02,ESE,113,0.0,0.0,75,0.00,,,0.00,WUHU216HW,2013-02-22 02:37:00,
2013-02-21 21:42:00,72.0,63.6,30.02,ESE,113,0.0,0.0,75,0.00,,,0.00,WUHU216HW,2013-02-22 02:42:00,
2013-02-21 21:59:00,71.3,63.3,30.02,ESE,113,0.2,0.2,76,0.00,,,0.00,WUHU216HW,2013-02-22 02:59:00,
2013-02-21 22:04:00,71.3,63.3,30.02,ESE,113,0.2,0.2,76,0.00,,,0.00,WUHU216HW,2013-02-22 03:04:00,
2013-02-21 22:29:00,70.2,63.0,30.02,SE,135,1.1,1.1,78,0.00,,,0.00,WUHU216HW,2013-02-22 03:29:00,
2013-02-21 22:34:00,70.2,63.0,30.02,SE,135,1.1,1.1,78,0.00,,,0.00,WUHU216HW,2013-02-22 03:34:00,
2013-02-21 22:59:00,69.8,62.7,30.02,ESE,113,0.4,0.4,78,0.00,,,0.00,WUHU216HW,2013-02-22 03:59:00,
2013-02-21 23:04:00,69.8,62.7,30.02,ESE,113,0.4,0.4,78,0.00,,,0.00,WUHU216HW,2013-02-22 04:04:00,
2013-02-21 23:29:00,69.5,62.3,30.02,ESE,113,0.0,0.0,78,0.00,,,0.00,WUHU216HW,2013-02-22 04:29:00,
2013-02-21 23:34:00,69.5,62.3,30.02,ESE,113,0.0,0.0,78,0.00,,,0.00,WUHU216HW,2013-02-22 04:34:00,
2013-02-21 23:59:00,69.1,62.4,30.02,ESE,113,0.4,0.4,79,0.00,,,0.00,WUHU216HW,2013-02-22 04:59:00,